Flag Weather past 2 weeks in Bristol, England, United Kingdom

Now
48 °F

Fog.


Feels Like: 42 °F
Forecast: N/A
Wind: 15 mph from Northeast

Location: Bristol / Lulsgate

Current Time: Nov 28, 2014 at 11:15:42 PM

Latest Report: Nov 28, 2014 at 10:50 PM


Visibility: 2 mi

Pressure: 29.65 "Hg

Humidity: 94%

Dew point: 46 °F

Location of BristolLocation

Historic Weather in Bristol — Graph

°F

Bristol temperature yesterday

Maximum temperature yesterday: 46 °F (at 11:50 AM)
Minimum temperature yesterday: 39 °F (at 8:20 AM)
Average temperature yesterday: 44 °F

Past Weeks' High & Low Weather Summary

 TemperatureHumidityPressure
High55 °F (Nov 13, 10:20 PM)100% (Nov 15, 5:50 AM)30.33 "Hg (Nov 15, 5:50 AM)
Low34 °F (Nov 24, 9:20 PM)66% (Nov 24, 11:20 AM)29.30 "Hg (Nov 14, 2:50 AM)
Average46 °F93%29.82 "Hg
* Reported Nov 13 10:20 PM — Nov 28 10:20 PM, Bristol, Weather by CustomWeather, © 2014

Note: Actual official high and low records may vary slightly from our data, if they occured in-between our weather recording intervals... More about our weather records

Advertising

Bristol weather history for previous 24 hours

 ConditionsComfort  
Time TempWeatherWind HumidityBarometerVisibility
10:20 PM
Nov 28
48 °FPassing clouds.15 mph94%29.68 "Hg3 mi
9:50 PM48 °FLight rain. Passing clouds.15 mph94%29.68 "Hg6 mi
9:20 PM48 °FPassing clouds.15 mph94%29.68 "Hg6 mi
8:50 PM48 °FLight rain. Passing clouds.14 mph94%29.68 "Hg5 mi
8:20 PM48 °FPassing clouds.15 mph94%29.65 "Hg5 mi
7:50 PM50 °FPassing clouds.13 mph88%29.65 "Hg5 mi
7:20 PM50 °FPassing clouds.17 mph88%29.65 "Hg5 mi
6:50 PM50 °FPassing clouds.21 mph88%29.62 "Hg5 mi
6:20 PM50 °FPassing clouds.16 mph94%29.62 "Hg4 mi
5:50 PM50 °FPassing clouds.15 mph94%29.62 "Hg4 mi
5:20 PM50 °FPassing clouds.14 mph94%29.59 "Hg4 mi
4:50 PM50 °FPassing clouds.14 mph94%29.59 "Hg5 mi
4:20 PM50 °FPassing clouds.15 mph94%29.59 "Hg5 mi
3:50 PM50 °FPartly sunny.16 mph94%29.56 "Hg6 mi
3:20 PM50 °FPartly sunny.16 mph94%29.56 "Hg5 mi
2:50 PM52 °FPartly sunny.15 mph88%29.56 "Hg5 mi
2:20 PM50 °FPartly sunny.14 mph94%29.56 "Hg5 mi
1:50 PM50 °FPartly sunny.15 mph94%29.56 "Hg6 mi
1:20 PM50 °FPartly sunny.15 mph94%29.56 "Hg6 mi
12:50 PM50 °FPartly sunny.13 mph88%29.56 "Hg6 mi
12:20 PM50 °FPartly sunny.14 mph88%29.56 "Hg6 mi
11:50 AM48 °FPartly sunny.15 mph94%29.56 "HgN/A
11:20 AM48 °FPartly sunny.14 mph94%29.56 "Hg6 mi
10:50 AM48 °FPartly sunny.14 mph94%29.56 "HgN/A
10:20 AM48 °FPartly sunny.16 mph87%29.56 "Hg6 mi
9:50 AM48 °FPartly sunny.21 mph87%29.56 "Hg6 mi
9:20 AM48 °FPartly sunny.16 mph87%29.53 "HgN/A
8:50 AM48 °FPartly sunny.15 mph87%29.53 "HgN/A
8:20 AM48 °FPartly sunny.14 mph87%29.53 "HgN/A
7:50 AM48 °FPartly sunny.16 mph87%29.53 "HgN/A
7:20 AM48 °FPassing clouds.18 mph87%29.53 "HgN/A
6:50 AM48 °FPassing clouds.17 mph94%29.53 "Hg6 mi
6:20 AM48 °FPassing clouds.18 mph94%29.50 "Hg4 mi
5:50 AM48 °FPassing clouds.18 mph94%29.50 "Hg5 mi
5:20 AM48 °FFog.17 mph94%29.50 "Hg3 mi
4:50 AM48 °FFog.17 mph94%29.50 "Hg3 mi
4:20 AM48 °FFog.17 mph94%29.50 "Hg2 mi
3:50 AM48 °FFog.18 mph94%29.50 "Hg3 mi
3:20 AM48 °FFog.17 mph94%29.50 "Hg2 mi
2:50 AM48 °FFog.17 mph94%29.50 "Hg2 mi
2:20 AM48 °FFog.15 mph94%29.50 "Hg2 mi
1:50 AM48 °FFog.15 mph94%29.50 "Hg2 mi
12:50 AM46 °FFog.15 mph100%29.50 "Hg1 mi
12:20 AM46 °FFog.14 mph93%29.50 "Hg1 mi
11:50 PM
Nov 27
45 °FFog.12 mph100%29.50 "Hg1 mi
11:20 PM45 °FFog.12 mph93%29.50 "Hg1 mi
Weather by CustomWeather, © 2014

See weather overviewHow to use our weather pages